This is the latest recevied weather packets stored in our database for station/object N0HEQ. If no packets are shown the sender has not sent any weather packets the latest 1 day(s).
| Time | Temp. | Humidity | Pressure | Rain* | Wind** | Luminosity | Snow |
|---|---|---|---|---|---|---|---|
| 1778004708 | 3.33° C | 96% | 1016.2 hPa | 0 mm | 0.89 m/s, 78° | 120 W/m² | - |
| 1778004403 | 2.78° C | 97% | 1016.6 hPa | 0 mm | 0.45 m/s, 74° | 115 W/m² | - |
| 1778004101 | 3.33° C | 97% | 1016.7 hPa | 0 mm | 0.89 m/s, 42° | 97 W/m² | - |
| 1778003797 | 3.33° C | 97% | 1016.9 hPa | 0 mm | 0.45 m/s, 102° | 78 W/m² | - |
| 1778003493 | 3.33° C | 97% | 1016.7 hPa | 0 mm | 0.89 m/s, 46° | 98 W/m² | - |
| 1778003190 | 2.78° C | 97% | 1016.8 hPa | 0 mm | 0.89 m/s, 61° | 108 W/m² | - |
| 1778002886 | 3.33° C | 97% | 1016.9 hPa | 0 mm | 0.89 m/s, 65° | 91 W/m² | - |
| 1778002583 | 3.33° C | 97% | 1016.7 hPa | 0 mm | 0 m/s | 108 W/m² | - |
| 1778002280 | 3.33° C | 97% | 1016.9 hPa | 0 mm | 0.89 m/s, 97° | 82 W/m² | - |
| 1778001978 | 2.78° C | 97% | 1016.9 hPa | 0 mm | 0.89 m/s, 48° | 87 W/m² | - |
| 1778001674 | 2.78° C | 97% | 1016.8 hPa | 0 mm | 0.89 m/s, 55° | 87 W/m² | - |
| 1778001368 | 3.33° C | 97% | 1016.8 hPa | 0 mm | 0 m/s | 84 W/m² | - |
| 1778001066 | 2.78° C | 97% | 1016.9 hPa | 0 mm | 0.89 m/s, 94° | 86 W/m² | - |
| 1778000762 | 2.78° C | 97% | 1016.9 hPa | 0 mm | 0.89 m/s, 92° | 94 W/m² | - |
| 1778000459 | 2.78° C | 97% | 1016.9 hPa | 0 mm | 0.45 m/s, 75° | 125 W/m² | - |
| 1778000154 | 2.78° C | 97% | 1016.8 hPa | 0 mm | 0.89 m/s, 66° | 119 W/m² | - |
| 1777999850 | 2.78° C | 97% | 1017 hPa | 0 mm | 0.89 m/s, 99° | 103 W/m² | - |
| 1777999546 | 2.78° C | 97% | 1017.3 hPa | 0 mm | 0 m/s | 97 W/m² | - |
| 1777999244 | 2.78° C | 97% | 1017.4 hPa | 0 mm | 0.45 m/s, 56° | 73 W/m² | - |
| 1777998943 | 2.78° C | 97% | 1017.3 hPa | 0 mm | 0.89 m/s, 99° | 58 W/m² | - |
| 1777998639 | 2.78° C | 97% | 1017.6 hPa | 0 mm | 0.45 m/s, 53° | 69 W/m² | - |
| 1777998338 | 2.78° C | 97% | 1017.4 hPa | 0 mm | 0.89 m/s, 65° | 75 W/m² | - |
| 1777998035 | 2.78° C | 97% | 1017.3 hPa | 0 mm | 0.89 m/s, 105° | 76 W/m² | - |
| 1777997732 | 2.78° C | 97% | 1017.3 hPa | 0 mm | 0.89 m/s, 43° | 83 W/m² | - |
| 1777997429 | 2.78° C | 97% | 1017.4 hPa | 0 mm | 0 m/s | 75 W/m² | - |
* Rain latest hour (hover to see other rain measurements)
** Current wind speed in m/s (hover to see current wind gust speed)